Weather History for Pasco, WA

Change the Weather History Date:

Sunday, March 2, 2014

  Actual Average Record
Temperature  
Mean Temperature 26 °F 42 °F  
Max Temperature 27 °F 54 °F 66 °F (2010)
Min Temperature 25 °F 30 °F 11 °F (1993)
Degree Days  
Heating Degree Days 39 23  
Month to date heating degree days 72 46  
Since 1 July heating degree days 4301 3929  
Cooling Degree Days 0 0  
Month to date cooling degree days 0 0  
Year to date cooling degree days 0 0  
Moisture  
Dew Point 20 °F    
Average Humidity 74    
Maximum Humidity 92    
Minimum Humidity 55    
Precipitation  
Precipitation 0.11 in - 0.29 in (1957)
Month to date precipitation 0.11  
Year to date precipitation 1.09  
Snow  
Snow 0.00 in - - ()
Snow Depth 0.00 in    
Sea Level Pressure  
Sea Level Pressure 29.95 in    
Wind  
Wind Speed 8 mph (NW)    
Max Wind Speed 14 mph    
Max Gust Speed 16 mph    
Visibility 9 miles    
Events Rain , Snow    
T = Trace of Precipitation, MM = Missing Value Source: NWS Daily Summary

Daily Weather History Graph

Daily Weather History Graph

Search for Another Location

Airport:

Trip Planner

Search our weather history database for the weather conditions in past years. The results will help you decide how hot, cold, wet, or windy it might be!

Date:

Astronomy

Mar. 02, 2014 Rise Set
Actual Time 6:33 AM PST 5:44 PM PST
Civil Twilight 6:03 AM PST 6:14 PM PST
Nautical Twilight 5:28 AM PST 6:49 PM PST
Astronomical Twilight 4:53 AM PST 7:24 PM PST
Moon 7:00 AM PST (3/2) 7:55 PM PST (3/2)
Length of Visible Light 12h 10m
Length of Day
11h 10m
Waxing Crescent, 3% of the Moon is Illuminated
Mar 2
Waxing Crescent
Mar 8
First Quarter
Mar 16
Full
Mar 23
Last Quarter
Mar 30
New

Hourly Weather History & Observations

Time (PST) Temp. Windchill Dew Point Humidity Pressure Visibility Wind Dir Wind Speed Gust Speed Precip Events Conditions
12:53 AM 27.0 °F 18.0 °F 15.1 °F 61% 30.01 in 10.0 mi NW 9.2 mph - N/A   Overcast
1:53 AM 26.1 °F 17.6 °F 14.0 °F 60% 30.01 in 10.0 mi NNW 8.1 mph - N/A   Overcast
2:53 AM 26.1 °F 16.2 °F 12.9 °F 58% 30.01 in 10.0 mi NNW 10.4 mph - N/A   Overcast
3:53 AM 26.1 °F 18.4 °F 14.0 °F 60% 30.01 in 10.0 mi NNW 6.9 mph - N/A   Overcast
4:53 AM 26.1 °F 16.8 °F 14.0 °F 60% 30.01 in 10.0 mi NNW 9.2 mph - N/A   Overcast
5:53 AM 26.1 °F 17.6 °F 14.0 °F 60% 30.00 in 10.0 mi NNW 8.1 mph - N/A   Overcast
6:53 AM 26.1 °F 17.6 °F 15.1 °F 63% 29.99 in 10.0 mi NW 8.1 mph - N/A   Overcast
7:53 AM 26.1 °F 17.6 °F 15.1 °F 63% 30.00 in 10.0 mi NW 8.1 mph - N/A   Overcast
8:53 AM 26.1 °F 16.8 °F 17.1 °F 69% 29.98 in 9.0 mi NNW 9.2 mph - 0.00 in   Ice Pellets
9:49 AM 26.6 °F 16.8 °F 17.6 °F 69% 29.96 in 7.0 mi NNW 10.4 mph - 0.00 in Snow Light Snow
9:53 AM 27.0 °F 17.3 °F 17.1 °F 66% 29.97 in 6.0 mi North 10.4 mph - 0.00 in Snow Light Snow
10:53 AM 27.0 °F 18.0 °F 21.0 °F 78% 29.98 in 5.0 mi NW 9.2 mph - 0.03 in Snow Light Ice Pellets
11:07 AM 26.1 °F 16.2 °F 21.0 °F 81% 29.95 in 8.0 mi NW 10.4 mph - 0.01 in Rain Light Freezing Rain
11:35 AM 26.1 °F 15.6 °F 23.0 °F 88% 29.95 in 7.0 mi NNW 11.5 mph - 0.02 in Rain Light Freezing Rain
11:53 AM 26.1 °F 15.0 °F 23.0 °F 88% 29.97 in 6.0 mi WNW 12.7 mph - 0.03 in Rain Light Freezing Rain
12:53 PM 26.1 °F 15.0 °F 23.0 °F 88% 29.94 in 9.0 mi NW 12.7 mph - 0.01 in Rain Light Freezing Rain
1:53 PM 26.1 °F 15.6 °F 24.1 °F 92% 29.93 in 10.0 mi NW 11.5 mph - 0.03 in Rain Light Freezing Rain
2:53 PM 26.1 °F 16.2 °F 23.0 °F 88% 29.93 in 10.0 mi WNW 10.4 mph - 0.01 in Rain Light Freezing Rain
3:53 PM 27.0 °F 19.5 °F 23.0 °F 85% 29.92 in 10.0 mi NW 6.9 mph - 0.00 in   Overcast
4:53 PM 26.1 °F 20.5 °F 23.0 °F 88% 29.91 in 10.0 mi WNW 4.6 mph - 0.00 in   Overcast
5:53 PM 27.0 °F 21.6 °F 23.0 °F 85% 29.91 in 10.0 mi NW 4.6 mph - N/A   Overcast
6:53 PM 27.0 °F - 23.0 °F 85% 29.90 in 10.0 mi Calm Calm - 0.00 in Rain Light Freezing Rain
7:30 PM 27.0 °F - 23.0 °F 85% 29.88 in 10.0 mi Calm Calm - 0.00 in   Mostly Cloudy
7:53 PM 27.0 °F - 24.1 °F 89% 29.91 in 10.0 mi Calm Calm - 0.00 in   Mostly Cloudy
8:53 PM 27.0 °F - 24.1 °F 89% 29.90 in 10.0 mi Calm Calm - N/A   Overcast
9:53 PM 26.1 °F 21.9 °F 24.1 °F 92% 29.89 in 10.0 mi ESE 3.5 mph - N/A   Partly Cloudy
10:53 PM 26.1 °F - 24.1 °F 92% 29.90 in 10.0 mi Calm Calm - N/A   Partly Cloudy
11:53 PM 26.1 °F - 24.1 °F 92% 29.89 in 10.0 mi Calm Calm - N/A   Partly Cloudy